Theta_e
331 331 333 332 333 333 331 330 328 328 331 334 334 334 333 332 330 328 328 328 325 321 321 323 325 326 324 322 318 318 322 324 324 323 321 319 317 317 318 321 326 326 325 324 318 318 323 324 324 325 323 324 325 327 326 323 320 318 314 310 310 310
328 328 329 329 331 332 332 331 329 329 332 333 333 333 332 332 330 329 328 327 324 319 320 324 325 327 326 321 318 320 323 323 323 323 322 321 320 318 317 320 323 325 326 326 322 319 325 327 326 326 326 326 325 327 328 325 323 320 316 313 312 310
326 327 327 327 329 330 331 332 331 331 332 333 332 332 332 331 330 329 328 326 322 319 321 326 327 327 325 319 318 321 325 323 322 324 322 321 321 318 317 320 321 322 324 327 325 321 323 328 329 327 328 327 326 327 328 327 324 321 321 317 314 313
327 327 327 327 328 329 329 331 333 333 333 333 332 332 332 331 330 329 327 324 322 321 323 327 327 326 324 321 321 323 325 324 323 324 323 321 321 319 316 318 321 320 321 325 327 324 322 326 329 329 328 328 328 328 328 328 324 321 322 321 317 316
327 327 327 328 329 329 329 330 331 332 333 333 333 332 332 331 330 329 327 325 324 325 326 328 327 327 326 323 324 325 326 325 324 324 322 321 322 322 319 316 317 320 319 321 326 327 324 325 329 329 328 328 329 328 327 328 325 321 322 321 319 318
325 326 327 328 328 329 329 329 329 331 332 333 333 332 331 332 331 329 329 328 328 328 327 327 327 328 327 325 325 325 326 326 324 322 321 322 323 323 320 315 314 317 318 319 325 328 325 324 327 329 328 327 329 328 327 327 325 323 322 322 321 319
322 323 324 326 327 328 329 329 328 329 332 332 331 330 330 331 331 331 330 330 330 330 329 327 326 327 328 327 327 325 326 327 323 320 321 322 322 321 317 313 312 314 317 319 324 327 326 324 325 326 328 327 328 328 327 326 325 323 323 323 322 320
319 319 320 321 322 324 328 330 328 329 332 332 329 326 328 330 330 330 331 331 330 330 329 327 326 327 328 329 328 327 327 327 323 320 322 322 322 319 314 312 311 313 316 318 324 328 325 324 323 323 325 327 328 328 327 325 324 324 324 323 322 321
317 318 317 316 316 318 322 328 329 329 331 332 330 326 325 325 326 328 331 331 331 330 329 328 327 328 329 330 330 329 329 328 324 321 322 322 321 319 314 312 310 312 315 317 323 327 325 323 322 321 322 326 327 327 326 325 324 324 323 322 320 319
317 317 317 316 316 315 317 323 328 330 330 331 331 329 326 322 321 327 331 330 330 330 329 329 328 329 330 330 330 330 329 327 325 321 321 322 320 320 317 313 312 314 315 316 321 325 324 322 321 320 320 324 327 326 326 325 323 323 322 320 319 318
316 316 317 317 317 317 317 320 325 327 329 330 331 331 329 326 322 323 328 331 330 329 329 329 330 330 330 331 331 331 330 328 326 323 321 322 321 321 322 316 314 317 318 319 322 323 323 322 321 320 319 322 326 326 325 325 324 323 321 320 319 318
315 315 316 317 318 319 319 320 320 322 325 328 330 331 331 330 327 324 323 326 328 328 329 330 330 331 330 331 331 331 331 329 329 327 323 322 321 321 324 321 318 320 323 324 325 323 322 321 320 320 319 320 324 325 324 325 324 323 322 321 320 320
314 314 315 317 318 320 320 320 320 320 322 326 328 331 331 331 330 328 325 323 325 327 329 330 331 331 330 330 330 330 331 330 330 329 326 323 322 321 323 324 322 322 324 326 325 324 323 321 320 322 322 321 322 323 323 324 323 322 321 322 322 322
312 313 314 316 318 319 320 320 320 321 322 324 326 328 330 331 331 331 329 327 327 328 329 330 330 331 331 330 329 330 330 330 331 330 328 326 324 323 323 324 324 324 324 325 325 324 324 323 322 323 323 322 321 321 321 321 320 321 321 322 323 323
311 312 314 317 318 319 319 320 319 319 319 321 322 323 325 327 329 330 331 331 330 330 331 330 330 331 331 329 329 329 330 331 331 329 328 328 326 325 324 324 325 325 325 325 325 324 324 324 324 323 323 323 322 321 322 320 319 319 319 321 323 325
310 311 314 317 318 318 319 318 316 316 317 319 320 320 321 321 323 326 328 330 331 331 332 331 331 331 330 329 329 329 329 329 329 329 329 329 328 327 326 325 325 325 326 326 326 325 325 324 324 324 324 325 324 324 323 321 320 319 319 320 320 323
310 310 313 315 316 318 316 313 312 313 314 316 318 319 319 320 320 321 322 324 325 327 329 330 330 330 330 329 329 329 328 328 329 329 329 329 329 329 329 327 326 325 326 327 327 327 327 326 326 326 325 325 325 325 324 324 323 323 323 322 321 320
309 309 311 313 315 315 312 309 309 309 310 313 316 318 318 319 319 319 320 320 321 322 323 325 326 328 329 329 330 329 328 328 328 329 329 329 330 330 330 329 327 327 327 328 328 328 328 328 328 328 326 326 326 325 325 325 325 325 325 325 323 321
308 308 310 312 312 310 308 307 306 306 307 310 313 315 314 314 315 315 316 317 319 319 320 321 322 323 326 328 329 328 328 329 329 329 329 330 331 330 329 327 327 328 328 327 326 326 328 329 329 328 327 326 326 326 326 327 327 327 327 325 324 322
309 308 308 309 309 307 306 305 305 305 306 307 308 308 307 307 307 307 308 310 311 313 316 318 320 320 322 325 327 328 327 328 329 329 330 330 330 330 329 328 327 327 329 328 324 324 327 328 327 328 328 327 326 327 327 328 328 327 327 326 324 323
310 308 307 307 307 306 306 306 306 307 306 305 305 305 305 305 305 305 305 305 305 306 307 309 313 316 318 321 324 326 327 328 328 329 330 330 330 330 330 330 329 326 327 326 323 323 325 326 325 326 327 328 327 327 328 329 328 328 328 327 326 325
311 309 308 307 307 307 308 308 308 307 306 306 306 306 306 306 306 305 305 304 304 304 304 304 305 308 313 317 318 321 323 325 326 328 329 329 329 330 330 330 330 327 326 324 322 323 325 326 327 327 327 328 328 328 328 329 329 329 329 329 328 327
311 309 308 307 307 309 309 308 308 307 307 307 307 307 307 307 306 305 305 304 303 303 303 303 304 304 308 311 312 315 318 319 322 324 324 324 325 327 328 329 330 329 327 324 324 326 327 328 328 329 329 329 328 328 328 328 329 329 329 329 329 328
311 310 309 308 309 310 309 308 308 308 308 308 308 308 307 307 307 306 306 305 304 304 304 303 304 304 305 306 307 310 313 314 316 319 320 321 322 323 323 324 326 327 327 326 327 328 327 328 328 330 330 330 329 329 328 329 329 329 329 328 328 328
312 310 309 309 310 310 309 308 308 308 308 308 308 308 308 308 307 307 307 306 306 305 305 304 304 304 305 305 306 308 310 310 313 317 319 320 321 321 321 321 322 323 323 325 327 326 324 325 326 328 329 329 329 329 329 330 329 329 328 328 328 328
312 311 310 310 310 311 309 308 308 308 308 308 308 309 308 308 308 308 307 307 307 306 305 305 305 305 305 306 307 307 307 308 309 312 315 316 317 318 318 319 320 321 321 323 324 323 323 324 325 326 327 328 328 328 329 329 329 329 328 328 328 328
313 311 310 310 311 311 310 309 308 308 308 308 308 309 309 309 308 308 308 308 307 307 305 305 304 305 305 305 306 306 307 308 308 309 310 312 313 313 312 312 315 317 318 320 321 322 323 324 325 326 327 328 328 328 329 329 329 329 329 329 328 328
313 312 311 311 310 311 311 309 308 309 309 309 308 309 309 309 309 308 308 308 307 307 306 305 304 303 303 303 303 304 305 306 307 308 309 309 310 310 309 309 309 310 311 313 315 317 319 320 322 323 325 326 327 327 327 327 328 328 328 328 328 327
313 312 311 311 311 311 311 310 309 309 309 309 309 309 309 309 309 309 308 308 308 307 307 306 305 304 303 303 303 303 304 304 305 306 306 306 306 307 308 308 308 309 310 311 311 313 314 316 317 318 320 321 322 323 324 325 325 327 327 327 327 327
313 312 312 311 311 311 311 310 309 309 309 309 309 309 309 310 310 309 309 308 308 308 307 307 306 305 305 304 304 304 304 304 304 304 304 304 304 305 305 305 306 307 308 310 311 312 313 314 315 315 315 315 317 318 320 321 322 323 324 324 324 325
314 313 312 312 311 311 311 311 310 309 309 310 310 309 309 310 310 310 309 309 308 308 308 307 306 306 306 305 305 306 305 305 305 305 305 304 304 304 304 303 304 304 304 305 307 309 310 312 313 313 313 312 313 314 316 318 320 321 322 322 322 322
314 314 313 312 312 311 311 311 310 310 310 310 310 309 309 310 310 310 310 309 309 308 308 308 307 306 306 306 306 306 306 306 305 305 305 305 304 304 304 304 304 303 303 303 303 304 305 306 307 308 309 309 310 312 314 316 318 320 321 322 322 322
316 315 313 312 312 311 310 311 310 310 310 311 310 310 310 310 310 310 310 310 309 309 308 308 307 307 306 306 306 306 306 305 305 305 305 305 305 305 305 305 305 305 304 304 303 302 302 302 303 303 304 306 307 309 312 314 316 318 319 320 321 321
317 316 314 313 313 312 311 311 310 311 311 311 311 310 310 309 310 310 310 310 310 309 308 308 307 307 307 306 306 305 305 305 305 304 305 305 305 305 305 305 305 305 304 304 304 303 302 301 301 302 302 302 303 304 307 309 312 314 316 317 318 318
318 316 315 314 314 313 313 311 311 311 311 311 311 311 311 310 310 310 310 310 311 310 310 309 308 307 307 306 306 306 305 305 305 304 305 305 305 305 304 304 304 304 304 304 304 303 303 302 302 301 301 301 301 301 302 303 306 308 310 312 313 315
319 317 316 315 315 315 314 313 312 311 311 311 311 311 311 311 310 310 310 310 311 311 310 309 308 308 307 306 306 306 305 305 305 304 304 304 305 304 304 304 304 304 303 303 303 303 302 302 302 302 302 301 301 300 300 300 301 303 305 307 309 311
318 318 317 316 316 316 316 315 313 312 312 312 312 312 313 312 311 310 310 310 311 312 311 310 309 309 308 307 307 306 306 305 305 304 304 304 304 304 304 304 304 303 303 303 303 302 302 302 302 302 302 302 302 302 301 300 300 300 301 303 305 307
Wind_Speed
8 8 8 9 9 9 9 9 10 10 10 10 11 13 14 13 11 10 8 7 6 6 7 8 8 9 8 6 5 6 8 8 8 8 6 5 6 9 13 14 15 15 17 16 16 18 17 14 13 12 10 9 9 9 8 9 11 11 10 9 7 6
8 7 8 8 9 9 9 9 9 10 10 10 11 13 14 13 12 11 9 8 8 7 7 8 9 10 8 6 6 7 8 8 9 8 4 3 4 7 11 14 15 16 17 17 16 18 19 17 14 14 12 10 8 8 7 7 9 10 10 9 8 7
8 8 8 8 8 9 9 9 9 10 10 10 12 12 13 13 14 12 11 9 9 8 7 9 9 9 7 6 7 8 8 7 9 8 5 3 3 5 10 13 15 16 18 18 17 17 19 19 17 15 14 12 9 8 8 7 7 8 9 8 8 7
9 9 8 8 8 9 9 10 10 11 11 11 11 12 13 14 13 12 12 9 9 9 8 8 8 8 8 8 9 9 8 8 9 9 6 4 3 4 8 13 15 16 18 19 18 17 18 20 19 17 16 13 11 9 9 8 7 6 7 7 7 6
9 9 8 7 8 9 10 10 10 11 12 12 12 12 13 12 12 13 12 10 10 10 8 8 7 8 8 10 11 10 9 9 8 8 6 4 3 3 5 10 15 17 17 19 20 18 17 19 21 19 17 14 11 10 10 9 7 6 5 5 5 5
9 8 8 7 8 8 9 10 11 12 13 14 13 13 12 11 12 13 14 13 11 10 9 8 7 7 8 11 12 10 9 9 9 8 6 4 3 4 3 7 14 17 17 19 21 19 18 18 21 21 18 15 13 11 11 9 8 7 6 5 4 3
8 7 7 7 7 7 8 9 11 12 13 15 14 13 12 11 12 13 14 13 10 10 10 9 7 7 8 11 12 12 10 10 9 8 6 5 3 4 4 6 12 17 18 19 21 19 17 17 19 21 19 17 14 12 11 9 8 7 6 5 3 3
7 7 6 6 6 6 8 9 11 12 13 15 14 13 13 12 12 12 13 12 10 11 11 9 8 7 8 11 13 14 13 12 10 9 7 5 3 3 4 7 12 17 19 19 21 19 16 16 18 20 20 18 16 14 12 10 9 8 7 5 4 3
5 6 5 5 5 6 7 8 10 11 13 13 13 13 12 13 13 12 12 11 10 11 11 10 9 8 9 11 13 14 14 12 10 9 9 6 3 2 3 7 12 16 19 19 20 19 16 15 16 19 20 19 18 15 13 12 10 9 8 7 6 5
4 4 4 4 4 5 7 8 9 11 11 12 12 12 11 12 13 13 12 11 11 11 12 11 10 9 10 11 12 14 14 13 12 10 9 7 4 4 3 6 13 16 17 18 18 18 16 14 14 17 20 20 19 18 15 14 12 10 9 9 8 8
4 4 4 4 4 4 6 8 9 10 11 11 12 12 11 11 11 13 13 13 13 12 12 11 10 10 10 10 12 14 15 16 14 11 10 8 7 6 5 7 13 15 15 17 17 17 16 15 13 14 18 21 21 20 18 17 14 12 11 11 10 10
5 5 5 5 4 4 5 6 7 8 9 11 12 11 11 10 10 12 13 14 13 13 12 11 11 11 11 10 11 13 14 16 15 12 11 9 9 9 7 8 11 14 15 16 16 15 15 15 14 13 16 20 22 22 20 19 17 15 13 12 11 11
5 6 5 5 4 4 4 5 5 6 7 8 10 10 10 10 10 12 13 14 14 14 13 12 12 12 12 12 11 13 13 13 14 14 12 10 10 10 10 9 11 13 15 15 15 14 14 14 14 13 14 18 21 22 21 20 18 16 14 12 12 12
6 6 6 5 5 5 5 5 5 5 6 7 8 8 9 10 11 12 13 14 14 15 13 12 14 13 12 12 11 12 13 13 14 13 12 11 11 12 12 11 11 12 13 14 13 12 12 12 12 12 13 15 18 19 20 18 16 14 13 12 12 12
6 6 6 5 6 6 5 5 6 7 8 9 9 8 8 8 11 12 13 13 14 14 12 12 15 14 13 12 12 11 12 14 14 12 13 13 13 14 14 15 13 13 13 13 12 12 11 11 11 12 12 13 15 16 16 14 13 12 12 11 11 12
5 5 6 7 7 7 6 6 7 7 8 9 9 8 7 7 8 10 11 12 13 14 12 12 13 13 13 12 11 10 11 13 14 14 14 14 15 16 17 17 17 16 15 14 13 13 13 12 12 12 13 14 15 15 14 12 11 9 9 9 10 11
4 5 7 7 7 7 6 6 6 6 7 8 8 8 7 5 4 6 7 8 10 12 13 13 12 12 12 11 10 10 12 13 13 14 14 14 15 17 18 18 18 18 17 15 16 16 15 14 14 13 14 15 16 16 15 13 11 9 8 9 9 9
4 6 7 7 7 7 6 5 4 4 5 6 7 7 7 6 5 5 5 5 7 8 10 12 12 13 11 10 10 10 12 13 12 13 14 15 15 16 18 17 18 19 18 17 17 18 17 16 15 16 16 17 18 18 17 15 13 12 11 10 9 8
5 7 8 8 7 7 5 4 2 2 2 3 5 5 6 6 5 6 6 7 7 7 7 8 9 11 10 9 9 8 10 12 13 14 15 16 15 15 16 15 17 19 18 16 15 14 14 15 15 16 18 18 18 19 18 17 16 15 13 12 10 9
6 7 8 8 7 6 5 4 3 4 3 3 3 2 1 1 2 4 5 6 8 8 8 8 7 8 8 9 9 9 9 11 13 15 15 14 14 14 14 14 16 17 17 15 12 10 11 12 14 15 16 18 19 19 18 18 17 16 14 12 11 10
6 7 7 7 7 6 5 5 6 7 6 5 5 4 3 2 1 2 4 5 6 8 9 9 9 8 8 9 10 10 10 11 12 13 13 13 13 13 12 13 14 15 15 14 12 10 9 11 13 14 14 16 18 18 18 18 18 17 15 14 13 13
6 7 7 7 6 7 6 6 8 9 8 8 7 5 4 3 1 2 2 4 5 7 8 9 9 9 9 8 8 9 10 11 11 12 12 11 12 13 12 11 12 14 15 14 13 12 11 11 13 14 14 15 17 18 18 19 19 18 17 16 16 16
7 7 8 9 8 9 10 10 9 9 9 8 7 6 5 5 4 4 3 3 3 4 5 7 8 8 8 7 7 7 8 9 10 11 10 8 10 11 9 9 9 11 14 15 14 14 13 13 13 14 14 15 15 16 18 19 19 20 19 19 18 18
9 8 9 11 11 12 12 12 10 9 8 7 6 6 6 6 6 6 6 7 6 5 4 3 4 5 6 5 6 6 6 6 7 8 7 7 7 7 6 7 8 10 13 14 13 11 11 12 13 12 12 12 12 13 14 14 16 18 18 19 19 19
10 9 10 13 14 14 13 12 12 10 9 8 7 6 6 6 7 7 8 8 9 9 8 6 3 1 2 3 4 5 6 6 6 5 5 5 5 4 4 5 8 11 12 14 15 14 12 12 13 13 12 12 11 11 10 11 12 14 16 17 18 19
11 11 12 14 15 15 14 12 11 11 10 10 9 6 5 6 6 7 7 8 9 10 10 10 8 6 4 3 3 4 4 5 5 5 5 4 4 3 4 3 4 7 8 9 12 12 12 12 11 12 13 14 13 13 13 13 11 11 13 14 14 15
13 13 13 14 15 16 15 12 10 10 10 10 10 7 5 5 5 6 7 7 8 9 10 11 10 9 8 5 3 2 2 2 3 3 3 3 2 2 3 3 4 5 5 6 6 7 8 8 7 8 9 11 12 14 16 15 12 11 12 13 13 12
15 15 14 14 15 16 15 13 11 10 9 9 9 7 5 4 4 5 5 6 7 8 9 10 10 10 9 8 7 5 3 2 1 1 2 2 2 2 2 3 4 5 6 6 7 7 7 7 6 6 6 7 8 9 11 13 14 15 15 16 17 15
18 17 15 15 16 15 15 14 13 12 10 9 9 8 6 5 4 4 4 5 5 6 7 8 9 9 9 9 9 8 7 5 4 3 2 2 3 3 2 3 4 5 6 7 7 8 8 8 8 8 7 7 7 7 8 8 9 11 12 13 16 17
20 18 17 17 16 15 15 16 15 13 11 10 10 9 8 6 5 4 3 3 4 4 4 6 7 8 8 8 8 7 7 5 4 3 3 3 3 3 3 3 4 5 6 7 7 8 8 9 9 10 10 10 9 9 9 8 7 7 8 10 12 14
22 21 20 19 18 17 16 17 16 15 13 11 11 9 8 7 6 5 4 3 3 3 3 4 6 6 7 6 6 5 4 4 3 2 2 2 3 3 4 4 5 6 7 8 9 9 9 10 10 11 11 12 12 11 10 9 9 8 8 9 11 13
25 24 23 21 20 19 18 18 18 17 15 13 12 9 7 6 6 5 5 4 4 3 3 4 4 5 5 4 4 3 2 2 2 2 1 1 2 3 4 5 6 6 7 8 9 10 11 12 12 12 13 13 13 13 12 11 11 11 10 10 11 13
28 27 25 23 22 21 20 19 19 19 17 15 14 11 8 7 7 6 6 5 5 4 4 4 4 4 4 4 3 2 1 0 1 1 1 2 3 4 5 6 6 7 8 8 8 9 10 11 13 13 14 14 14 14 14 14 14 14 13 13 13 14
31 29 27 26 24 23 21 20 20 20 19 18 16 14 11 8 8 8 7 6 5 5 5 4 5 5 5 4 3 2 2 1 0 1 1 1 2 4 5 6 7 8 8 9 9 10 10 10 11 12 13 14 15 16 16 17 17 17 17 17 16 16
34 32 30 28 27 25 22 21 21 21 21 20 18 17 13 10 9 9 8 7 7 6 6 6 6 6 5 5 5 4 3 1 1 2 2 2 3 4 5 6 7 8 9 9 9 9 10 10 10 11 13 14 15 16 17 18 19 19 19 20 19 19
36 34 32 31 29 26 23 22 22 22 22 21 20 19 17 13 12 11 9 9 8 8 7 7 7 7 6 6 5 4 3 2 2 3 4 4 4 5 6 8 9 9 10 10 10 10 10 10 10 11 12 13 15 16 17 19 20 21 20 21 21 22
38 36 34 33 31 28 25 24 23 24 24 23 22 21 20 17 14 13 11 10 10 10 10 10 9 8 8 7 6 5 4 3 4 5 5 5 5 5 7 8 9 11 11 12 12 12 11 11 11 11 12 13 14 15 16 18 19 21 21 22 22 22
Wind_Direction
179 181 185 187 186 183 186 188 185 188 189 194 192 186 186 189 190 195 204 210 222 229 219 210 201 196 193 192 194 192 196 203 199 199 204 208 215 209 203 196 192 199 203 202 197 197 207 217 224 225 218 196 166 160 158 151 149 149 152 153 147 144
184 186 191 195 196 191 189 191 189 188 190 194 195 194 190 189 193 200 210 219 222 218 213 205 199 196 195 194 193 194 199 207 203 200 209 218 230 216 205 200 193 195 203 207 203 196 200 209 219 226 227 219 194 174 169 164 156 149 150 153 151 150
192 194 197 200 202 201 195 193 192 194 197 195 197 199 197 197 198 204 212 217 215 213 211 201 198 197 197 203 197 200 203 206 208 205 212 221 231 217 204 201 196 197 202 207 209 201 198 203 212 224 229 227 218 193 180 182 174 156 148 151 154 153
192 197 200 201 202 205 203 199 196 197 202 199 199 201 203 203 199 205 210 207 206 208 209 200 197 197 199 203 200 204 205 203 207 207 212 212 205 205 201 201 200 201 202 205 212 209 202 201 205 219 229 227 223 206 192 191 189 176 156 151 155 153
189 195 201 203 200 203 206 206 204 204 206 205 206 205 208 208 201 208 211 203 200 199 203 201 198 204 205 205 205 204 201 202 206 207 214 213 212 222 207 204 204 203 203 205 210 213 208 203 203 213 226 225 221 210 201 201 198 196 180 161 159 155
194 199 204 208 203 201 205 211 212 211 213 211 213 213 213 211 205 211 213 208 201 196 202 206 207 215 214 211 212 208 202 206 209 210 217 220 240 255 230 205 204 202 204 206 208 211 210 207 204 209 219 220 219 215 208 210 208 206 201 187 176 165
193 200 206 210 210 204 203 212 217 215 216 216 218 219 218 215 207 208 215 215 206 201 205 212 217 223 222 216 215 212 208 209 210 211 216 226 252 269 245 204 195 196 199 206 206 208 210 208 206 208 216 217 217 219 215 214 213 212 214 211 206 206
184 192 199 209 220 218 210 210 214 215 215 217 222 222 225 227 216 207 215 219 215 212 211 218 224 227 227 220 216 213 209 207 207 211 213 225 246 267 250 202 186 189 194 203 204 205 209 208 208 207 213 218 216 218 219 215 212 213 220 229 237 244
199 200 207 217 228 231 226 216 210 213 214 219 226 226 227 231 226 216 216 220 221 220 217 223 228 231 233 226 220 215 210 205 203 212 213 216 228 217 223 194 179 181 188 198 200 202 207 208 209 208 210 217 220 218 220 219 217 220 227 238 248 259
235 231 241 239 237 230 231 226 216 214 215 220 227 230 229 228 226 222 220 221 223 223 221 227 233 237 239 236 229 217 210 205 202 213 213 208 212 180 156 173 172 174 183 191 195 199 204 207 210 210 208 214 221 222 223 223 223 228 235 246 257 267
256 257 263 255 248 230 226 228 227 225 222 224 229 233 230 225 226 225 224 223 226 228 227 232 239 241 242 242 238 224 213 208 204 209 211 205 202 184 149 151 166 170 176 182 186 193 199 203 207 211 210 212 220 225 228 229 230 234 243 255 265 271
270 271 268 257 246 225 220 226 231 234 230 231 237 239 230 224 228 229 228 228 231 236 234 237 243 247 246 244 243 237 221 212 209 208 210 207 198 192 174 160 167 171 175 179 182 188 194 201 205 211 214 214 219 226 231 233 235 242 249 257 265 269
277 271 261 250 235 218 217 223 231 239 242 243 247 248 241 237 235 231 232 234 237 241 239 239 245 250 249 247 247 246 233 216 215 209 207 210 204 201 197 187 180 180 183 184 186 190 195 200 205 210 215 215 219 225 232 236 240 246 251 256 262 264
272 262 249 235 224 218 217 220 228 241 251 256 258 258 253 250 246 239 236 235 239 245 246 243 246 249 248 247 245 247 240 225 220 213 208 211 209 209 209 205 200 198 196 194 194 197 199 200 204 209 213 216 220 226 233 238 241 243 247 254 259 260
256 246 232 219 216 219 221 227 238 246 252 255 258 261 258 253 249 246 240 236 239 247 251 250 251 253 249 246 242 240 240 232 225 218 214 213 211 211 213 211 209 208 207 207 207 208 208 207 208 209 211 216 220 225 232 235 239 242 246 251 252 253
240 229 215 212 216 222 228 235 242 243 244 248 250 253 257 256 251 249 248 245 247 249 251 254 257 257 252 249 243 236 239 237 228 221 220 220 217 214 216 216 212 208 208 214 218 218 216 214 216 217 217 221 220 222 230 237 243 251 255 255 252 250
219 212 209 214 220 227 238 243 239 233 233 237 239 242 248 252 245 241 247 249 251 252 251 252 255 255 253 247 239 234 240 240 229 223 224 226 223 220 222 222 217 214 214 219 226 227 226 224 226 229 227 226 225 226 231 239 250 261 266 271 272 264
202 199 205 212 220 232 244 244 235 231 229 226 229 237 241 245 244 237 238 241 247 253 252 253 253 254 255 252 247 237 234 235 228 226 227 228 227 225 227 224 219 222 224 227 233 237 238 238 238 239 236 231 230 232 236 242 250 257 264 273 281 280
199 197 201 207 218 230 234 232 221 205 193 199 216 231 241 248 252 251 248 245 247 251 253 258 257 254 252 249 253 244 230 230 228 228 231 231 229 228 228 224 221 224 227 230 240 244 241 245 249 249 245 237 232 234 239 244 249 253 261 269 275 277
202 201 200 203 212 214 204 183 160 148 141 153 171 169 194 244 268 266 260 254 251 250 250 256 259 259 253 243 248 251 239 235 232 230 233 234 234 235 233 226 221 224 228 232 244 250 238 243 255 258 254 243 233 232 237 243 249 252 256 264 270 271
205 205 199 199 201 190 177 161 145 134 127 122 113 101 89 77 346 300 285 278 270 263 258 257 258 258 256 249 249 253 247 244 247 243 239 238 239 241 239 230 222 223 229 232 240 252 247 247 259 267 269 257 241 236 238 240 247 253 256 260 266 267
211 205 192 191 185 159 147 144 138 130 124 115 105 99 88 80 48 349 313 300 291 283 276 270 267 260 253 250 251 258 256 251 255 252 245 242 243 245 245 238 229 228 231 231 239 256 262 261 265 268 272 270 258 252 251 247 246 251 256 260 264 266
213 201 185 181 172 153 145 142 138 131 123 113 101 97 93 88 79 68 51 24 357 321 299 283 277 270 260 253 250 255 260 258 257 255 252 253 256 256 253 242 236 236 234 236 246 260 265 265 266 265 264 266 264 262 262 257 252 252 256 260 263 267
211 201 184 174 167 161 154 149 146 138 126 124 114 97 92 89 83 79 72 60 49 37 19 322 283 272 265 259 247 239 241 248 252 257 260 264 267 266 266 258 249 245 243 244 250 261 269 267 261 260 262 264 266 266 265 263 259 257 258 260 262 267
211 202 187 175 172 172 168 161 157 150 143 144 136 112 98 92 84 79 74 70 63 57 55 53 56 53 241 234 233 230 230 229 223 231 239 245 254 253 265 272 260 254 253 251 252 260 272 274 263 255 253 258 264 266 263 263 264 263 261 260 263 266
212 204 190 181 179 181 180 174 163 149 145 148 144 132 118 102 88 81 75 73 70 67 66 67 71 80 105 159 198 217 227 232 224 221 223 227 237 236 241 248 249 254 256 251 252 257 261 266 267 257 251 252 255 259 263 267 268 268 264 260 260 263
216 209 197 188 187 190 190 182 166 145 136 144 146 138 135 121 99 89 82 77 76 74 75 76 79 83 91 106 127 167 202 224 235 236 238 245 248 248 242 236 237 245 251 251 251 249 246 250 259 257 252 250 251 254 258 260 262 266 270 264 255 255
218 213 205 197 194 198 198 186 173 163 151 149 150 145 149 144 119 105 93 87 84 80 81 84 87 88 88 89 88 88 89 86 55 310 302 308 304 298 283 261 255 255 257 258 256 255 254 253 254 254 253 250 252 255 257 260 262 262 266 269 266 262
216 216 212 205 200 202 204 194 183 183 176 163 164 169 172 165 145 128 109 99 96 92 91 93 95 96 95 91 88 86 83 79 69 53 30 10 353 332 315 290 275 268 266 265 263 262 261 261 259 259 259 256 254 256 260 268 270 263 262 270 274 273
216 219 218 212 206 203 207 203 194 196 194 183 183 185 183 180 170 157 140 124 115 117 113 107 107 105 103 101 96 92 91 89 84 70 47 21 4 344 327 306 290 278 273 271 269 269 267 266 266 265 266 268 267 264 261 262 263 263 264 266 269 273
218 222 221 217 212 207 209 209 202 202 204 201 200 194 186 186 180 167 166 165 154 154 147 134 128 120 116 112 102 96 92 93 91 78 46 9 348 336 330 319 307 293 282 275 270 269 269 269 272 273 273 273 274 275 270 264 260 260 263 267 270 273
219 222 222 220 217 212 212 214 208 206 209 212 214 207 192 185 181 176 183 193 195 193 185 169 158 147 138 132 120 106 87 75 66 49 31 27 19 8 3 352 341 327 312 297 283 274 268 266 268 272 275 275 275 275 272 265 261 262 262 264 269 275
222 223 223 221 220 216 215 218 213 209 212 217 222 219 205 191 189 190 197 206 208 210 208 193 183 179 168 157 149 137 118 91 47 25 12 20 19 14 11 6 0 354 343 331 318 302 287 275 269 265 266 268 268 270 269 266 263 262 262 262 263 269
223 224 224 223 222 220 219 221 219 214 213 218 224 226 216 205 204 204 204 211 219 223 221 210 202 201 194 182 177 182 197 199 70 9 344 351 1 6 5 1 359 357 350 342 333 325 316 303 289 278 270 266 264 264 265 266 266 265 265 266 268 270
224 223 224 224 223 223 221 222 222 218 216 219 225 230 227 217 217 218 212 211 219 227 231 226 221 218 210 201 197 203 217 231 293 323 322 324 337 350 351 350 349 350 349 345 336 328 322 315 305 294 284 276 270 266 265 265 266 267 268 269 271 273
225 225 226 226 226 226 224 223 225 223 220 220 224 230 232 226 224 224 220 218 221 226 233 235 235 232 226 220 217 221 233 253 286 302 305 306 319 332 338 340 341 341 343 343 339 332 326 318 310 302 293 284 276 270 268 267 266 267 267 268 271 273
225 226 227 229 229 228 225 224 226 226 224 221 222 227 230 228 226 226 223 222 223 225 230 235 238 239 237 236 236 242 252 268 284 291 290 288 300 318 325 327 330 333 335 336 336 333 329 324 315 307 301 294 287 279 272 268 266 266 266 265 266 269